DIFLY EDRY-EDDK

Flight info

Callsign DIFLY
Flight time 0h 33m
Altitude 15000
Route UMDAS Z12 KETEG DCT EBATU Z41 OLKAS T840 GULKO DCT COL
Aircraft B350/L-SBGRW/S

Departure

Time 2026-04-16 08:59
Airport Speyer Airfield (EDRY)

Arrival

Time 2026-04-16 09:33
Airport Cologne Bonn Airport (EDDK)
Time Latitude Longitude Altitude Speed Heading
2026-04-16 08:48 49.30989 8.45134 319 ft 0 kts 70°
2026-04-16 08:57 49.30989 8.45137 319 ft 0 kts 75°
2026-04-16 08:57 49.30981 8.45139 319 ft 4 kts 228°
2026-04-16 08:58 49.30954 8.45084 317 ft 7 kts 167°
2026-04-16 08:58 49.30921 8.45040 317 ft 6 kts 278°
2026-04-16 08:58 49.30894 8.45006 317 ft 0 kts 162°
2026-04-16 08:59 49.30618 8.45123 315 ft 94 kts 165°
2026-04-16 08:59 49.29774 8.45444 516 ft 147 kts 170°
2026-04-16 08:59 49.28686 8.45915 920 ft 178 kts 162°
2026-04-16 08:59 49.27583 8.46807 1659 ft 184 kts 134°
2026-04-16 09:00 49.27124 8.48552 2414 ft 185 kts 89°
2026-04-16 09:00 49.27435 8.50445 3181 ft 182 kts 66°
2026-04-16 09:00 49.27989 8.52179 3937 ft 182 kts 59°
2026-04-16 09:00 49.28618 8.53824 4695 ft 182 kts 55°
2026-04-16 09:01 49.29908 8.57135 6149 ft 183 kts 56°
2026-04-16 09:01 49.30558 8.58817 6880 ft 186 kts 56°
2026-04-16 09:01 49.31216 8.60526 7640 ft 186 kts 56°
2026-04-16 09:02 49.31866 8.62214 8331 ft 188 kts 56°
2026-04-16 09:02 49.32528 8.63937 9009 ft 189 kts 56°
2026-04-16 09:02 49.33204 8.65695 9690 ft 193 kts 57°
2026-04-16 09:02 49.33883 8.67464 10357 ft 195 kts 57°
2026-04-16 09:03 49.34572 8.69262 11016 ft 196 kts 57°
2026-04-16 09:03 49.35263 8.71067 11647 ft 198 kts 57°
2026-04-16 09:03 49.35957 8.72878 12253 ft 200 kts 57°
2026-04-16 09:03 49.36675 8.74753 12888 ft 204 kts 57°
2026-04-16 09:04 49.37404 8.76662 13556 ft 205 kts 57°
2026-04-16 09:04 49.38116 8.78526 14200 ft 206 kts 56°
2026-04-16 09:04 49.38842 8.80427 14826 ft 206 kts 56°
2026-04-16 09:04 49.39587 8.82378 15200 ft 220 kts 56°
2026-04-16 09:05 49.40399 8.84558 15255 ft 249 kts 58°
2026-04-16 09:05 49.41263 8.87007 15253 ft 272 kts 59°
2026-04-16 09:05 49.42181 8.89677 15258 ft 291 kts 60°
2026-04-16 09:05 49.43160 8.92506 15244 ft 304 kts 59°
2026-04-16 09:06 49.44392 8.95187 15233 ft 308 kts 45°
2026-04-16 09:06 49.46035 8.97300 15224 ft 305 kts 29°
2026-04-16 09:06 49.47941 8.98657 15220 ft 300 kts 14°
2026-04-16 09:06 49.50012 8.99211 15217 ft 295 kts 359°
2026-04-16 09:07 49.52081 8.98933 15215 ft 291 kts 345°
2026-04-16 09:07 49.54002 8.97992 15230 ft 288 kts 338°
2026-04-16 09:07 49.55882 8.96906 15223 ft 288 kts 337°
2026-04-16 09:07 49.57749 8.95819 15222 ft 288 kts 337°
2026-04-16 09:08 49.59621 8.94734 15220 ft 288 kts 337°
2026-04-16 09:08 49.61507 8.93641 15222 ft 288 kts 337°
2026-04-16 09:08 49.63374 8.92559 15219 ft 288 kts 337°
2026-04-16 09:08 49.65269 8.91461 15224 ft 289 kts 337°
2026-04-16 09:09 49.67153 8.90370 15221 ft 289 kts 337°
2026-04-16 09:09 49.69042 8.89275 15219 ft 289 kts 337°
2026-04-16 09:09 49.70927 8.88183 15222 ft 289 kts 337°
2026-04-16 09:09 49.72818 8.87085 15223 ft 289 kts 337°
2026-04-16 09:10 49.74714 8.85981 15220 ft 289 kts 336°
2026-04-16 09:10 49.76554 8.84678 15220 ft 288 kts 329°
2026-04-16 09:10 49.78265 8.83060 15219 ft 286 kts 324°
2026-04-16 09:10 49.79916 8.81275 15217 ft 286 kts 322°
2026-04-16 09:11 49.81559 8.79457 15219 ft 286 kts 322°
2026-04-16 09:11 49.83177 8.77667 15217 ft 286 kts 322°
2026-04-16 09:11 49.84791 8.75882 15214 ft 286 kts 322°
2026-04-16 09:11 49.86409 8.74095 15215 ft 286 kts 323°
2026-04-16 09:12 49.88043 8.72303 15218 ft 286 kts 322°
2026-04-16 09:12 49.89623 8.70468 15218 ft 285 kts 320°
2026-04-16 09:12 49.91192 8.68531 15219 ft 285 kts 319°
2026-04-16 09:12 49.92782 8.66545 15219 ft 285 kts 319°
2026-04-16 09:13 49.94333 8.64620 15221 ft 285 kts 320°
2026-04-16 09:13 49.95908 8.62674 15220 ft 285 kts 320°
2026-04-16 09:13 49.97463 8.60756 15223 ft 286 kts 320°
2026-04-16 09:13 49.99026 8.58832 15223 ft 286 kts 320°
2026-04-16 09:14 50.00595 8.56903 15217 ft 286 kts 320°
2026-04-16 09:14 50.02153 8.54987 15220 ft 285 kts 320°
2026-04-16 09:14 50.03723 8.53056 15223 ft 285 kts 320°
2026-04-16 09:14 50.05298 8.51117 15223 ft 286 kts 320°
2026-04-16 09:15 50.06858 8.49196 15220 ft 286 kts 320°
2026-04-16 09:15 50.08408 8.47288 15219 ft 286 kts 320°
2026-04-16 09:15 50.09981 8.45346 15217 ft 286 kts 320°
2026-04-16 09:15 50.11545 8.43417 15219 ft 286 kts 320°
2026-04-16 09:16 50.13112 8.41482 15212 ft 286 kts 320°
2026-04-16 09:16 50.14691 8.39530 15212 ft 286 kts 319°
2026-04-16 09:16 50.16270 8.37577 15212 ft 287 kts 320°
2026-04-16 09:16 50.17825 8.35653 15212 ft 287 kts 319°
2026-04-16 09:17 50.19405 8.33694 15208 ft 287 kts 319°
2026-04-16 09:17 50.20969 8.31754 15206 ft 287 kts 319°
2026-04-16 09:17 50.22525 8.29823 15213 ft 287 kts 319°
2026-04-16 09:17 50.24084 8.27886 15207 ft 287 kts 319°
2026-04-16 09:18 50.25658 8.25927 15197 ft 287 kts 319°
2026-04-16 09:18 50.27217 8.23987 15202 ft 287 kts 319°
2026-04-16 09:18 50.28779 8.22041 15212 ft 287 kts 319°
2026-04-16 09:18 50.30337 8.20099 15202 ft 287 kts 319°
2026-04-16 09:19 50.31941 8.18098 15205 ft 287 kts 319°
2026-04-16 09:19 50.33514 8.16132 15212 ft 287 kts 319°
2026-04-16 09:19 50.35083 8.14172 15202 ft 288 kts 319°
2026-04-16 09:19 50.36649 8.12213 15200 ft 288 kts 319°
2026-04-16 09:20 50.38251 8.10206 15024 ft 294 kts 319°
2026-04-16 09:20 50.39870 8.08175 14610 ft 301 kts 319°
2026-04-16 09:20 50.41487 8.06150 14180 ft 297 kts 319°
2026-04-16 09:20 50.43094 8.04138 13744 ft 292 kts 319°
2026-04-16 09:21 50.44707 8.02115 13310 ft 288 kts 319°
2026-04-16 09:21 50.46258 8.00167 12881 ft 285 kts 319°
2026-04-16 09:21 50.47805 7.98223 12456 ft 283 kts 319°
2026-04-16 09:21 50.49339 7.96290 12026 ft 281 kts 319°
2026-04-16 09:22 50.50865 7.94366 11628 ft 279 kts 319°
2026-04-16 09:22 50.52396 7.92435 11249 ft 276 kts 319°
2026-04-16 09:22 50.53903 7.90532 10925 ft 274 kts 319°
2026-04-16 09:22 50.55408 7.88631 10603 ft 273 kts 319°
2026-04-16 09:23 50.56907 7.86735 10277 ft 273 kts 319°
2026-04-16 09:23 50.58373 7.84867 9951 ft 273 kts 318°
2026-04-16 09:23 50.59548 7.82533 9520 ft 273 kts 295°
2026-04-16 09:23 50.60274 7.79756 9136 ft 274 kts 289°
2026-04-16 09:24 50.60897 7.76933 8755 ft 275 kts 288°
2026-04-16 09:24 50.61532 7.74072 8350 ft 275 kts 289°
2026-04-16 09:24 50.62179 7.71248 7956 ft 275 kts 289°
2026-04-16 09:24 50.62832 7.68446 7549 ft 273 kts 289°
2026-04-16 09:25 50.63493 7.65637 7145 ft 271 kts 289°
2026-04-16 09:25 50.64151 7.62860 6739 ft 270 kts 290°
2026-04-16 09:25 50.64813 7.60075 6327 ft 269 kts 290°
2026-04-16 09:25 50.65479 7.57276 5910 ft 268 kts 290°
2026-04-16 09:26 50.66137 7.54518 5500 ft 266 kts 290°
2026-04-16 09:26 50.66774 7.51840 5068 ft 256 kts 290°
2026-04-16 09:26 50.67384 7.49272 4640 ft 246 kts 290°
2026-04-16 09:26 50.67972 7.46796 4251 ft 237 kts 290°
2026-04-16 09:27 50.68536 7.44419 3930 ft 228 kts 290°
2026-04-16 09:27 50.69077 7.42143 3599 ft 214 kts 290°
2026-04-16 09:27 50.69586 7.39999 3280 ft 203 kts 290°
2026-04-16 09:27 50.70073 7.37928 3116 ft 198 kts 290°
2026-04-16 09:28 50.70664 7.35946 2967 ft 204 kts 304°
2026-04-16 09:28 50.71633 7.34344 2977 ft 198 kts 316°
2026-04-16 09:28 50.72651 7.32912 2973 ft 194 kts 317°
2026-04-16 09:28 50.73646 7.31501 2972 ft 191 kts 316°
2026-04-16 09:29 50.74630 7.30084 2978 ft 189 kts 316°
2026-04-16 09:29 50.75591 7.28693 2977 ft 188 kts 316°
2026-04-16 09:29 50.76574 7.27272 2745 ft 197 kts 316°
2026-04-16 09:29 50.77565 7.25845 2485 ft 191 kts 316°
2026-04-16 09:30 50.78519 7.24470 2242 ft 184 kts 316°
2026-04-16 09:30 50.79475 7.23088 1988 ft 188 kts 316°
2026-04-16 09:30 50.80385 7.21774 1742 ft 168 kts 317°
2026-04-16 09:30 50.81223 7.20565 1521 ft 163 kts 316°
2026-04-16 09:31 50.82034 7.19393 1310 ft 154 kts 317°
2026-04-16 09:31 50.82812 7.18268 1100 ft 145 kts 317°
2026-04-16 09:31 50.83506 7.17269 915 ft 125 kts 317°
2026-04-16 09:31 50.84108 7.16397 758 ft 111 kts 317°
2026-04-16 09:32 50.84687 7.15552 625 ft 116 kts 317°
2026-04-16 09:32 50.85298 7.14666 447 ft 120 kts 317°
2026-04-16 09:32 50.85895 7.13809 276 ft 108 kts 319°
2026-04-16 09:32 50.86369 7.13125 247 ft 66 kts 318°
2026-04-16 09:33 50.86670 7.12695 238 ft 47 kts 320°
2026-04-16 09:33 50.86836 7.12733 237 ft 22 kts 17°
2026-04-16 09:33 50.86964 7.12612 235 ft 23 kts 317°
2026-04-16 09:33 50.87065 7.12591 234 ft 7 kts 355°
2026-04-16 09:34 50.87089 7.12561 234 ft 0 kts 320°